IK1QAD-3 Weather Reports


time (UTC)temp
C
wind
direction
speed
KPH
gust
KPH
rain 1hr
cm
rain 24hr
cm
rain mn
cm
humidity
%
barometer
mb
20260507090843 18 103 12.9 19.3 0.00 0.00 0.00 75 1012.7
20260507090343 18 59 8.0 19.3 0.00 0.00 0.00 77 1012.6
20260507085840 18 123 11.3 19.3 0.00 0.00 0.00 75 1012.5
20260507085334 18 103 12.9 19.3 0.00 0.00 0.00 75 1012.5
20260507084833 18 136 9.7 19.3 0.00 0.00 0.00 75 1012.6
20260507084328 18 144 8.0 19.3 0.00 0.00 0.00 75 1012.5
20260507083825 18 104 12.9 19.3 0.00 0.00 0.00 74 1012.4
20260507083324 18 71 8.0 19.3 0.00 0.00 0.00 72 1012.4
20260507082838 19 109 8.0 17.7 0.00 0.00 0.00 71 1012.3
20260507082336 19 126 8.0 19.3 0.00 0.00 0.00 71 1012.2
20260507081831 19 113 9.7 19.3 0.00 0.00 0.00 69 1012.2
20260507081331 19 61 8.0 17.7 0.00 0.00 0.00 69 1012.3
20260507080829 19 135 6.4 16.1 0.00 0.00 0.00 68 1012.2
20260507080342 19 111 6.4 17.7 0.00 0.00 0.00 69 1012.2
20260507075838 18 96 9.7 17.7 0.00 0.00 0.00 68 1012.2
20260507075331 18 166 6.4 11.3 0.00 0.00 0.00 70 1012.1
20260507074826 18 164 4.8 8.0 0.00 0.00 0.00 70 1012.2
20260507074325 18 294 3.2 9.7 0.00 0.00 0.00 69 1012.2
20260507073839 18 164 1.6 9.7 0.00 0.00 0.00 70 1012.2
20260507073337 18 38 1.6 9.7 0.00 0.00 0.00 70 1012.2
20260507072830 18 85 4.8 11.3 0.00 0.00 0.00 70 1012.2
20260507072326 18 150 4.8 11.3 0.00 0.00 0.00 72 1012.1
20260507071824 18 285 1.6 4.8 0.00 0.00 0.00 72 1012.2
20260507071339 18 66 1.6 4.8 0.00 0.00 0.00 73 1012.2
20260507070836 17 210 1.6 4.8 0.00 0.00 0.00 74 1012.2
20260507070327 17 128 1.6 6.4 0.00 0.00 0.00 75 1012.2
20260507065824 17 129 4.8 6.4 0.00 0.00 0.00 75 1012.1
20260507065344 17 183 1.6 9.7 0.00 0.00 0.00 76 1012.0
20260507064837 17 128 1.6 9.7 0.00 0.00 0.00 76 1012.0
20260507064334 17 115 4.8 6.4 0.00 0.00 0.00 75 1011.9
20260507063830 17 135 3.2 6.4 0.00 0.00 0.00 76 1011.9
20260507063327 16 175 0.0 11.3 0.00 0.00 0.00 77 1011.8
20260507062843 16 138 6.4 11.3 0.00 0.00 0.00 76 1011.9
20260507062336 17 203 3.2 4.8 0.00 0.00 0.00 75 1011.8
20260507061838 17 174 1.6 3.2 0.00 0.00 0.00 75 1011.8
20260507061330 17 81 0.0 0.0 0.00 0.00 0.00 77 1011.8
20260507060828 16 69 0.0 0.0 0.00 0.00 0.00 78 1011.8
20260507060328 16 34 0.0 3.2 0.00 0.00 0.00 77 1011.9
20260507055836 16 34 0.0 8.0 0.00 0.00 0.00 79 1011.8
20260507055331 16 37 4.8 8.0 0.00 0.00 0.00 80 1011.8
20260507054845 15 57 3.2 4.8 0.00 0.00 0.00 81 1011.7
20260507054336 15 65 3.2 4.8 0.00 0.00 0.00 82 1011.6
20260507053833 15 327 1.6 3.2 0.00 0.00 0.00 82 1011.5
20260507053328 14 26 1.6 4.8 0.00 0.00 0.00 84 1011.6
20260507052841 13 332 3.2 4.8 0.00 0.00 0.00 84 1011.4
20260507052329 13 328 3.2 6.4 0.00 0.00 0.00 84 1011.5
20260507051826 13 325 4.8 6.4 0.00 0.00 0.00 85 1011.3
20260507051344 13 341 4.8 6.4 0.00 0.00 0.00 86 1011.3
20260507050841 12 324 3.2 8.0 0.00 0.00 0.00 87 1011.2
20260507050342 12 16 4.8 8.0 0.00 0.00 0.00 88 1011.3
20260507045837 12 312 6.4 8.0 0.00 0.61 0.00 88 1011.2
20260507045337 12 325 4.8 9.7 0.00 0.61 0.00 88 1011.2
20260507044834 12 342 4.8 9.7 0.00 0.61 0.00 88 1011.0
20260507044328 12 327 6.4 9.7 0.00 0.61 0.00 87 1011.1
20260507043828 12 313 6.4 12.9 0.00 0.61 0.00 86 1011.0
20260507043343 12 322 6.4 12.9 0.00 0.61 0.00 86 1011.0
20260507042840 12 330 6.4 12.9 0.00 0.61 0.00 87 1011.0
20260507042340 12 338 3.2 9.7 0.00 0.61 0.00 88 1011.1
20260507041833 12 360 4.8 9.7 0.00 0.61 0.00 88 1011.1
20260507041330 12 320 4.8 8.0 0.00 0.61 0.00 88 1011.1
20260507040843 12 331 4.8 8.0 0.00 0.61 0.00 88 1010.9
20260507040344 12 323 4.8 8.0 0.00 0.61 0.00 87 1010.9
20260507035838 12 329 4.8 8.0 0.00 0.61 0.00 86 1010.9
20260507035332 12 329 4.8 8.0 0.00 0.61 0.00 87 1010.8
20260507034830 12 346 4.8 9.7 0.00 0.61 0.00 88 1010.8
20260507034324 12 355 4.8 9.7 0.00 0.61 0.00 87 1010.8
20260507033844 12 322 6.4 14.5 0.00 0.61 0.00 86 1010.8
20260507033342 12 321 8.0 14.5 0.00 0.61 0.00 86 1010.7
20260507032837 12 329 3.2 16.1 0.00 0.61 0.00 86 1010.7
20260507032335 12 327 4.8 12.9 0.00 0.61 0.00 86 1010.7
20260507031828 12 326 6.4 12.9 0.00 0.61 0.00 86 1010.6
20260507031325 12 10 6.4 14.5 0.00 0.61 0.00 87 1010.7
20260507030842 12 12 3.2 8.0 0.00 0.61 0.00 88 1010.6
20260507030337 12 9 4.8 12.9 0.00 0.61 0.00 88 1010.6
20260507025833 12 342 4.8 14.5 0.00 0.61 0.00 89 1010.5
20260507025326 12 327 3.2 14.5 0.00 0.61 0.00 90 1010.6
20260507024825 12 350 4.8 8.0 0.00 0.61 0.00 91 1010.6
20260507024342 12 348 4.8 8.0 0.00 0.61 0.00 91 1010.6
20260507023836 12 319 3.2 8.0 0.00 0.61 0.00 91 1010.6
20260507023333 12 325 4.8 8.0 0.00 0.61 0.00 91 1010.7
20260507022827 12 335 3.2 6.4 0.00 0.61 0.00 91 1010.6
20260507022325 12 26 3.2 8.0 0.00 0.61 0.00 91 1010.6
20260507021824 12 341 3.2 8.0 0.00 0.61 0.00 91 1010.5
20260507021340 12 322 6.4 8.0 0.00 0.61 0.00 91 1010.5
20260507020836 12 321 4.8 8.0 0.00 0.61 0.00 91 1010.5
20260507020331 12 340 3.2 6.4 0.00 0.61 0.00 91 1010.5
20260507015843 12 324 4.8 6.4 0.00 0.61 0.00 91 1010.5
20260507015343 12 344 1.6 6.4 0.00 0.61 0.00 90 1010.4
20260507014839 12 328 3.2 6.4 0.00 0.61 0.00 90 1010.3
20260507014341 12 332 3.2 6.4 0.00 0.61 0.00 90 1010.3
20260507013836 12 340 3.2 6.4 0.00 0.61 0.00 89 1010.3
20260507013334 12 360 4.8 6.4 0.00 0.61 0.00 89 1010.2
20260507012831 13 342 3.2 8.0 0.00 0.61 0.00 89 1010.2
20260507012343 13 336 6.4 9.7 0.00 0.61 0.00 89 1010.3
20260507011841 13 350 6.4 9.7 0.00 0.61 0.00 90 1010.3
20260507011336 12 317 6.4 12.9 0.00 0.61 0.00 90 1010.2
20260507010834 12 331 3.2 8.0 0.00 0.61 0.00 90 1010.3
20260507010332 12 321 3.2 8.0 0.00 0.61 0.00 90 1010.4
20260507005844 13 328 6.4 8.0 0.00 0.89 0.00 90 1010.4
20260507005342 13 344 4.8 6.4 0.00 0.89 0.00 90 1010.4
20260507004837 13 338 3.2 6.4 0.00 0.89 0.00 89 1010.4
20260507004336 13 333 3.2 6.4 0.00 0.89 0.00 89 1010.5
20260507003837 13 322 3.2 6.4 0.00 0.89 0.00 89 1010.5
20260507003332 13 360 3.2 12.9 0.00 0.89 0.00 88 1010.4
20260507002830 13 12 6.4 14.5 0.00 0.89 0.00 88 1010.4
20260507002327 13 32 6.4 14.5 0.00 0.89 0.00 89 1010.4
20260507001843 13 349 4.8 9.7 0.00 0.89 0.00 90 1010.4
20260507001343 13 332 4.8 8.0 0.00 0.89 0.00 91 1010.3
20260507000836 12 333 3.2 8.0 0.00 0.89 0.00 91 1010.3
20260507000332 12 17 3.2 8.0 0.00 0.89 0.00 91 1010.2
20260506235831 12 331 4.8 8.0 0.00 1.50 0.00 91 1010.3
20260506235327 12 338 1.6 6.4 0.00 1.50 0.00 91 1010.3
20260506234843 12 9 1.6 6.4 0.00 1.50 0.00 92 1010.3
20260506234340 12 329 3.2 6.4 0.00 1.50 0.00 92 1010.3
20260506233838 12 325 3.2 4.8 0.00 1.50 0.00 92 1010.2
20260506233335 12 11 1.6 8.0 0.00 1.50 0.00 92 1010.3
20260506232828 12 325 4.8 8.0 0.00 1.50 0.00 92 1010.4
20260506232326 12 312 4.8 8.0 0.00 1.50 0.00 91 1010.4
20260506231843 12 329 4.8 6.4 0.00 1.50 0.00 91 1010.3
20260506231343 12 325 4.8 6.4 0.00 1.50 0.00 90 1010.3
20260506230841 12 355 3.2 9.7 0.00 1.50 0.00 90 1010.3
20260506230335 13 319 8.0 9.7 0.00 1.50 0.00 90 1010.2
20260506225830 13 327 6.4 8.0 0.00 1.50 0.00 90 1010.2
20260506225325 13 319 4.8 6.4 0.00 1.50 0.00 90 1010.2
20260506224841 13 323 4.8 6.4 0.00 1.50 0.00 89 1010.2
20260506224339 13 339 1.6 6.4 0.00 1.50 0.00 89 1010.2
20260506223835 13 329 3.2 6.4 0.00 1.50 0.00 90 1010.2
20260506223336 13 316 3.2 6.4 0.00 1.50 0.00 89 1010.1
20260506222828 13 5 1.6 6.4 0.00 1.50 0.00 88 1010.2
20260506222326 13 341 3.2 8.0 0.00 1.50 0.00 88 1010.2
20260506221844 13 19 4.8 9.7 0.00 1.50 0.00 89 1010.2
20260506221338 13 26 4.8 12.9 0.00 1.50 0.00 89 1010.3
20260506220835 13 5 4.8 12.9 0.00 1.50 0.00 89 1010.1
20260506220328 13 5 3.2 6.4 0.00 1.50 0.00 90 1010.2
20260506215836 13 348 4.8 6.4 0.00 1.50 0.30 90 1010.1
20260506215335 13 330 4.8 6.4 0.00 1.50 0.30 89 1010.1
20260506214830 13 328 4.8 6.4 0.00 1.50 0.30 90 1010.0
20260506214330 13 17 1.6 6.4 0.00 1.50 0.30 90 1010.0
20260506213844 13 18 4.8 6.4 0.00 1.50 0.30 90 1010.0
20260506213343 13 324 1.6 8.0 0.00 1.50 0.30 90 1010.0
20260506212835 13 340 4.8 8.0 0.00 1.50 0.30 89 1009.9
20260506212327 13 311 6.4 8.0 0.00 1.50 0.30 88 1009.9
20260506211824 13 312 4.8 6.4 0.00 1.50 0.30 87 1009.9
20260506211342 13 323 4.8 6.4 0.00 1.50 0.30 87 1009.9
20260506210839 13 355 3.2 8.0 0.00 1.50 0.30 87 1009.9
20260506210337 13 326 6.4 8.0 0.00 1.50 0.30 86 1009.9
20260506205830 13 324 6.4 8.0 0.00 1.50 0.30 85 1009.8
20260506205330 14 339 1.6 9.7 0.00 1.50 0.30 86 1009.9
20260506204842 13 360 3.2 9.7 0.00 1.50 0.30 86 1009.8
20260506204341 13 333 4.8 8.0 0.00 1.50 0.30 85 1009.7
20260506203840 14 342 3.2 6.4 0.00 1.50 0.30 85 1009.6
20260506203335 14 13 4.8 8.0 0.00 1.50 0.30 84 1009.5
20260506202831 14 325 4.8 8.0 0.00 1.50 0.30 83 1009.5
20260506202344 15 340 4.8 6.4 0.00 1.50 0.30 82 1009.4
20260506201843 15 321 4.8 6.4 0.00 1.50 0.30 80 1009.2
20260506201338 16 124 3.2 8.0 0.00 1.50 0.30 79 1009.2
20260506200828 15 308 4.8 9.7 0.00 1.50 0.30 81 1009.2
20260506200328 15 323 4.8 14.5 0.00 1.50 0.30 82 1009.1
20260506195841 15 331 8.0 17.7 0.00 1.50 0.30 82 1009.1
20260506195341 15 333 9.7 17.7 0.00 1.50 0.30 82 1009.0
20260506194837 15 348 6.4 14.5 0.00 1.50 0.30 81 1008.8
20260506194326 15 360 6.4 12.9 0.00 1.50 0.30 81 1008.5
20260506193844 14 334 4.8 8.0 0.00 1.50 0.30 81 1008.5
20260506193333 15 321 4.8 8.0 0.00 1.50 0.30 81 1008.3
20260506192843 15 360 1.6 4.8 0.00 1.50 0.30 81 1008.2
20260506192335 15 5 3.2 8.0 0.00 1.50 0.30 80 1008.2
20260506191833 15 327 3.2 12.9 0.00 1.50 0.30 81 1008.0
20260506191331 15 327 8.0 14.5 0.00 1.50 0.30 80 1008.0
20260506190825 16 318 9.7 12.9 0.00 1.50 0.30 76 1007.9
20260506190343 16 316 0.0 6.4 0.00 1.50 0.30 74 1007.9
20260506185837 16 317 3.2 6.4 0.00 1.50 0.30 75 1007.8
20260506185333 16 146 3.2 6.4 0.00 1.50 0.30 74 1007.8
20260506184828 16 284 0.0 3.2 0.00 1.50 0.30 74 1007.8
20260506184341 17 291 0.0 4.8 0.00 1.50 0.30 74 1007.7
20260506183839 17 270 1.6 4.8 0.00 1.50 0.30 74 1007.6
20260506183335 17 303 3.2 14.5 0.00 1.50 0.30 74 1007.6
20260506182830 17 209 6.4 14.5 0.00 1.50 0.30 73 1007.5
20260506182326 17 154 4.8 16.1 0.00 1.50 0.30 74 1007.5
20260506181844 18 162 6.4 16.1 0.00 1.50 0.30 73 1007.5
20260506181343 18 143 4.8 20.9 0.00 1.50 0.30 66 1007.4
20260506180839 18 210 12.9 20.9 0.00 1.50 0.30 65 1007.3
20260506180336 18 231 9.7 24.1 0.00 1.50 0.30 65 1007.3
20260506175832 18 218 8.0 14.5 0.00 1.50 0.30 68 1007.3
20260506175326 18 134 4.8 19.3 0.00 1.50 0.30 68 1007.2
20260506174825 18 215 8.0 22.5 0.00 1.50 0.30 65 1007.1
20260506174326 18 218 9.7 22.5 0.00 1.50 0.30 65 1007.1
20260506173841 18 194 3.2 22.5 0.00 1.50 0.30 66 1006.9
20260506173342 18 253 11.3 20.9 0.00 1.50 0.30 65 1007.0
20260506172831 18 223 11.3 22.5 0.00 1.50 0.30 65 1006.9
20260506172329 18 216 9.7 25.7 0.00 1.50 0.30 65 1006.9
20260506171829 18 208 14.5 25.7 0.00 1.50 0.30 65 1007.0
20260506171342 19 188 6.4 29.0 0.00 1.50 0.30 65 1007.0
20260506170838 19 222 17.7 27.4 0.00 1.50 0.30 65 1006.8
20260506170335 19 302 11.3 22.5 0.00 1.50 0.30 65 1006.9
20260506165833 19 231 16.1 29.0 0.00 1.50 0.30 64 1006.8
20260506165333 19 220 17.7 29.0 0.00 1.50 0.30 64 1006.8
20260506164827 19 149 12.9 22.5 0.00 1.50 0.30 65 1006.7
20260506164327 19 231 12.9 24.1 0.00 1.50 0.30 66 1006.7
20260506163841 20 183 11.3 30.6 0.00 1.50 0.30 65 1006.7
20260506163338 20 237 16.1 30.6 0.00 1.50 0.30 64 1006.7
20260506162835 20 219 16.1 25.7 0.00 1.50 0.30 65 1006.6
20260506162330 20 240 14.5 29.0 0.00 1.50 0.30 65 1006.6
20260506161829 20 222 9.7 32.2 0.00 1.50 0.30 66 1006.5
20260506161325 20 196 19.3 32.2 0.00 1.50 0.30 66 1006.5
20260506160839 20 218 12.9 32.2 0.00 1.50 0.30 68 1006.5
20260506160338 20 222 19.3 40.2 0.00 1.50 0.30 67 1006.5
20260506155830 20 211 14.5 30.6 0.00 1.50 0.30 67 1006.6
20260506155326 20 219 11.3 37.0 0.00 1.50 0.30 67 1006.5
20260506154839 20 221 12.9 35.4 0.00 1.50 0.30 68 1006.5
20260506154338 20 211 16.1 32.2 0.00 1.50 0.30 68 1006.5
20260506153834 20 259 12.9 24.1 0.00 1.50 0.30 69 1006.5
20260506153329 20 250 8.0 32.2 0.00 1.50 0.30 69 1006.5
20260506152842 20 221 8.0 32.2 0.00 1.50 0.30 70 1006.4
20260506152336 20 184 14.5 27.4 0.00 1.50 0.30 67 1006.5
20260506151836 20 249 8.0 24.1 0.00 1.50 0.30 70 1006.5
20260506151334 20 213 12.9 24.1 0.00 1.50 0.30 68 1006.4
20260506150826 20 198 6.4 20.9 0.00 1.50 0.30 70 1006.6
20260506150326 20 196 12.9 27.4 0.00 1.50 0.30 71 1006.6
20260506145839 20 224 12.9 27.4 0.00 1.50 0.30 70 1006.5
20260506145337 20 207 9.7 22.5 0.00 1.50 0.30 71 1006.6
20260506144836 19 188 12.9 29.0 0.00 1.50 0.30 73 1006.5
20260506144330 18 195 14.5 33.8 0.00 1.50 0.30 73 1006.6
20260506143844 19 153 19.3 35.4 0.00 1.50 0.30 74 1006.7
20260506143341 19 182 17.7 33.8 0.00 1.50 0.30 73 1006.6
20260506142838 19 171 14.5 38.6 0.00 1.50 0.30 76 1006.5
20260506142335 18 205 12.9 38.6 0.00 1.50 0.30 76 1006.6
20260506141831 19 144 14.5 30.6 0.00 1.50 0.30 76 1006.7
20260506141328 19 169 16.1 29.0 0.00 1.50 0.30 74 1006.7
20260506140843 19 202 16.1 35.4 0.00 1.50 0.30 74 1006.7
20260506140325 19 211 19.3 37.0 0.00 1.50 0.30 74 1006.7
20260506135842 20 155 17.7 33.8 0.00 1.50 0.30 72 1006.6
20260506135338 20 243 12.9 27.4 0.00 1.50 0.30 71 1006.7
20260506134835 19 233 14.5 35.4 0.00 1.50 0.30 73 1006.7
20260506134331 20 209 17.7 27.4 0.00 1.50 0.30 69 1006.7
20260506133831 20 249 14.5 35.4 0.00 1.50 0.30 66 1006.7
20260506133327 20 202 19.3 35.4 0.00 1.50 0.30 65 1006.7
20260506132840 20 239 27.4 45.1 0.00 1.50 0.30 64 1006.7
20260506132339 20 205 20.9 45.1 0.00 1.50 0.30 66 1006.7
20260506131832 20 222 20.9 32.2 0.00 1.50 0.30 65 1006.8
20260506131334 20 224 19.3 38.6 0.00 1.50 0.30 64 1006.9
20260506130830 20 229 22.5 40.2 0.00 1.50 0.30 66 1006.7
20260506130325 20 259 24.1 40.2 0.00 1.50 0.30 66 1006.8
20260506125840 20 237 22.5 40.2 0.00 1.50 0.30 67 1006.8
20260506125333 20 219 22.5 40.2 0.00 1.50 0.30 66 1006.7
20260506124829 20 203 20.9 33.8 0.00 1.50 0.30 67 1006.7
20260506124326 20 233 16.1 38.6 0.00 1.50 0.30 68 1006.8
20260506123843 20 245 17.7 45.1 0.00 1.50 0.30 68 1006.9
20260506123341 19 213 22.5 43.5 0.00 1.50 0.30 68 1006.9
20260506122838 19 218 29.0 41.8 0.00 1.50 0.30 66 1006.9
20260506122338 19 190 24.1 40.2 0.00 1.50 0.30 67 1006.9
20260506121834 19 182 19.3 40.2 0.00 1.50 0.30 70 1006.8
20260506121329 19 214 25.7 40.2 0.00 1.50 0.30 69 1006.8
20260506120828 19 180 14.5 33.8 0.00 1.50 0.30 72 1006.7
20260506120342 19 220 19.3 33.8 0.00 1.50 0.30 73 1006.8
20260506115334 18 156 20.9 45.1 0.00 1.50 0.30 76 1006.9
20260506114835 18 154 17.7 38.6 0.00 1.50 0.30 75 1006.9
20260506114328 18 146 20.9 35.4 0.00 1.50 0.30 75 1006.9
20260506113844 19 196 16.1 32.2 0.00 1.50 0.30 74 1006.7
20260506113342 18 188 19.3 40.2 0.00 1.50 0.30 75 1006.8
20260506112834 18 44 20.9 40.2 0.00 1.50 0.30 76 1006.9
20260506111828 18 198 24.1 40.2 0.00 1.50 0.30 74 1007.2
20260506111343 18 217 22.5 40.2 0.00 1.50 0.30 74 1007.3
20260506110843 18 202 20.9 49.9 0.00 1.50 0.30 75 1007.4
20260506110338 18 214 22.5 49.9 0.00 1.50 0.30 74 1007.2
20260506105832 18 213 20.9 35.4 0.00 1.50 0.30 78 1007.4
20260506105329 18 188 22.5 33.8 0.00 1.50 0.30 79 1007.4
20260506104824 18 211 16.1 33.8 0.00 1.50 0.30 79 1007.4
20260506104341 18 201 19.3 37.0 0.00 1.50 0.30 78 1007.5
20260506103837 17 254 17.7 37.0 0.00 1.50 0.30 79 1007.4
20260506103333 18 171 17.7 33.8 0.00 1.50 0.30 79 1007.5
20260506102826 17 229 16.1 33.8 0.00 1.50 0.30 79 1007.6
20260506102341 17 193 19.3 30.6 0.00 1.50 0.30 78 1007.6
20260506101836 17 169 16.1 32.2 0.00 1.50 0.30 78 1007.6
20260506101330 17 204 19.3 30.6 0.00 1.50 0.30 78 1007.7
20260506100825 17 205 19.3 30.6 0.00 1.50 0.30 79 1007.7
20260506100340 17 180 19.3 32.2 0.00 1.50 0.30 78 1007.8
20260506095836 17 218 17.7 35.4 0.00 1.50 0.30 79 1007.8
20260506095336 17 198 16.1 37.0 0.00 1.50 0.30 78 1007.8
20260506094830 17 243 16.1 37.0 0.00 1.50 0.30 79 1007.8
20260506094327 17 169 19.3 29.0 0.00 1.50 0.30 78 1007.9
20260506093843 17 192 14.5 29.0 0.00 1.50 0.30 79 1007.9
20260506093343 17 179 14.5 29.0 0.00 1.50 0.30 79 1007.8
20260506092839 17 219 12.9 30.6 0.00 1.50 0.30 81 1007.8
20260506092334 17 197 17.7 29.0 0.00 1.50 0.30 79 1007.8
20260506091833 17 178 19.3 32.2 0.00 1.50 0.30 79 1007.7
20260506091326 17 204 11.3 22.5 0.00 1.50 0.30 79 1007.8